Regional Weather Roundup
Issued by NWS

Home | Current Version | Previous Version | Text Only | Print | Product List | Glossary Off
Versions: 1 2 3 4 5 6 7 8 9 10 11 12 13 14 15 16 17 18 19 20 21 22 23 24 25 26 27 28 29 30 31 32 33 34 35 36 37 38 39 40 41 42 43 44 45 46 47 48 49 50

000
ASUS45 KBOU 261107
RWRCO

WEATHER ROUNDUP FOR COLORADO
NATIONAL WEATHER SERVICE DENVER/BOULDER CO
400 AM MST WED NOV 26 2014

NOTE: "FAIR" INDICATES FEW OR NO CLOUDS BELOW 12000 FEET WITH NO
SIGNIFICANT WEATHER AND/OR OBSTRUCTIONS TO VISIBILITY.

COZ001>005-013-030-031-261200-
...NORTHWEST COLORADO...

CITY           SKY/WX    TMP DP  RH WIND       PRES   REMARKS
CRAIG          CLOUDY    31  26  82 NE5       30.23F WCI  26
HAYDEN         CLOUDY    28  25  86 CALM      30.22S
MEEKER         CLOUDY    35  25  66 VRB3      30.27S
MOUNT WERNER   NOT AVBL
STEAMBOAT SPGS CLOUDY    32  30  93 CALM      30.22F
WALDEN         CLOUDY    32  25  74 W14       30.11S WCI  22
$$

COZ006>008-011-261200-
...WEST CENTRAL VALLEYS...

CITY           SKY/WX    TMP DP  RH WIND       PRES   REMARKS
GRAND JUNCTION CLEAR     23  19  85 SE3       30.33S
MONTROSE       CLOUDY    33  23  66 SW3       30.34S
EAGLE          CLOUDY    36  25  64 SW10      30.29S
RIFLE          CLOUDY    27  23  85 CALM      30.34R
DELTA          CLOUDY    35  27  73 CALM      30.34F
NUCLA          PTCLDY    34  27  75 E8        30.37F WCI  27
$$

COZ017>023-064>068-261200-
...SOUTHWEST COLORADO...

CITY           SKY/WX    TMP DP  RH WIND       PRES   REMARKS
DURANGO        PTCLDY    21  13  71 NE7       30.31R WCI  12
CORTEZ         CLEAR     22  14  71 E10       30.35F WCI  11
PAGOSA SPRINGS PTCLDY    16   9  72 CALM      30.32S
TELLURIDE      NOT AVBL
WOLF CREEK PAS PTCLDY    19  16  86 MISG      30.32S
$$

COZ009-010-012-014-032>034-037-058>063-261200-
...CENTRAL COLORADO...

CITY           SKY/WX    TMP DP  RH WIND       PRES   REMARKS
ASPEN          MIX PCPN  25  22  88 CALM      30.30S
BUENA VISTA    PTCLDY    34  21  57 W14G25    30.16S WCI  25
COPPER MTN     CLOUDY    25  19  80 W32G43    30.23S WCI   7
BERTHOUD PASS  NOT AVBL
COTTONWOOD PAS LGT SNOW  32  21  64 W26G51    30.11S WCI  18
GUNNISON       CLOUDY    27  21  80 SE3       30.34S
KREMMLING      MIX PCPN  32  28  86 W20G29    30.21S WCI  20
LEADVILLE      LGT SNOW  24  22  91 N12       30.24S FOG     WCI  13
MONARCH PASS   CLOUDY    19  18  93 MISG      30.28F
SALIDA         PTCLDY    40  24  51 W26G40    30.23S
SUNLIGHT       CLOUDY   N/A N/A N/A CALM      30.31R
WILKERSON PASS CLEAR     23  19  86 NW10G24   30.17R WCI  12
$$

COZ069>075-261200-
...SAN LUIS VALLEY/SANGRE DE CRISTO MOUNTAINS...

CITY           SKY/WX    TMP DP  RH WIND       PRES   REMARKS
ALAMOSA        MOCLDY    12   6  77 S6        30.27R WCI   3
LA VETA PASS   PTCLDY    21  14  73 S15G32    30.20R WCI   8
SAGUACHE       NOT AVBL
$$

COZ035-036-038>040-261200-
...NORTHERN COLORADO FRONT RANGE...

CITY           SKY/WX    TMP DP  RH WIND       PRES   REMARKS
DENVER INTL AP CLOUDY    27  23  85 E7        30.18R WCI  19
DMNS CITY PARK   N/A     27  22  81 E5G12     30.19R WCI  22
AURORA         MOCLDY    25  24  93 E3        30.19R
FRONT RANGE AP CLOUDY    30  27  86 CALM      30.19R
ERIE MUNI ARPT CLOUDY    29  25  86 E7        30.19R WCI  22
BOULDER MUN AP LGT SNOW  28  27  93 CALM      30.18R
CENTENNIAL     FLURRIES  26  23  88 NE6       30.18R WCI  19
BROOMFIELD     LGT SNOW  28  27  93 E8        30.18R WCI  20
FORT COLLINS   CLOUDY    28  21  74 SE6       30.19S WCI  22
LONGMONT       CLOUDY    32  28  84 CALM      30.20S
$$

COZ041-046-047-076>085-087-088-261200-
...PIKES PEAK/PALMER DIVIDE AND SOUTHERN FOOTHILLS...

CITY           SKY/WX    TMP DP  RH WIND       PRES   REMARKS
COLO. SPRINGS  PTCLDY    23  21  92 S10       30.16R WCI  12
A. F. ACADEMY  CLOUDY    26  22  86 VRB3      30.14R
ELLICOTT       NOT AVBL
FALCON         NOT AVBL
FORT CARSON    CLOUDY    28  25  86 S13       30.16R WCI  18
LIMON          CLOUDY    24  22  91 N10       30.16R WCI  14
MONUMENT HILL  CLOUDY    21  21 100 NE3       30.13S FOG
TRINIDAD       MOCLDY    29  24  82 CALM      30.19F
$$

COZ042>045-048>051-090-091-261200-
...NORTHEAST COLORADO...

CITY           SKY/WX    TMP DP  RH WIND       PRES   REMARKS
GREELEY ARPT   CLOUDY    28  21  74 CALM      30.20S
AKRON          LGT SNOW  27  26  96 W15       30.15R VSB 3/4 WCI  15
BURLINGTON     LGT SNOW  30  26  85 N16G28    30.13S FOG     WCI  19
WRAY           CLOUDY    33  28  84 W16       30.15S WCI  22
STERLING       LGT SNOW  32  30  93 NW8       30.17R WCI  25
HOLYOKE        CLOUDY    34  27  75 NW15      30.14R WCI  24
FORT MORGAN    LGT SNOW  28  26  94 W8        30.19R WCI  20
$$

COZ086-089-092>099-261200-
...SOUTHEAST COLORADO...

CITY           SKY/WX    TMP DP  RH WIND       PRES   REMARKS
PUEBLO         PTCLDY    24  20  84 CALM      30.19R
LA JUNTA       CLEAR     28  24  85 W8        30.20R WCI  20
LAMAR          PTCLDY    25  23  92 W5        30.17R WCI  19
SPRINGFIELD      N/A     25  23  92 NW8       30.16R WCI  16
$$



USA.gov is the U.S. government's official web portal to all federal, state and local government web resources and services.